map of IGR home
Great Circle Mapper logo
IGR - Airport
Location
City:  Iguaçu, Misiones, Argentina
Near (Alt.):Iguazu
Name:Cataratas del Iguaçu
ICAO / IATA:SARI / IGR

Details
Type:Airport (Aerodrome, Airfield)
Use:Public/Civil
Latitude:25°44'14"S (-25.737280)
Longitude:54°28'24"W (-54.473443)
Datum:WGS 1984
Elevation:916 ft (279 m)
Variation:15.84°W (WMM2015 magnetic declination)
-0.17° annual change
Runways:1
Longest:10826 × 148 ft (3300 × 45 m), paved

Time
Time Zone:UTC-3
Local Time:

Weather
METAR:SARI 062100Z 05003KT 9999 -RA SCT025 OVC080 17/17 Q1015
TAF:SARI 061700Z 0618/0718 05005KT 9999 SCT035 BKN100 TX18/0717Z TN16/0710Z
BECMG 0620/0623 09005KT 5000 RA BKN015 OVC050 PROB30 3000 TSRA BKN010 SCT035 FEW050CB

Related Locations
Nearby:
Farthest:SHI: 12364 mi / 19898 km
Shimojishima, Shimoji Island, JP

Find:

   beyond  
but within

Other Information
Maps:
NOTAMs:
Links:
Sources:

  
flag of Argentina
flag of Misiones
  

Sectional Chart

Flight Planning
at skyvector.com

Satellite Image

Google Maps Satellite view

 

Copyright © 2004-2015 Karl L. Swartz. All rights reserved.
The Great Circle Mapper name and logo are trademarks of the Great Circle Mapper.
All other trademarks mentioned herein belong to their respective owners.
Please see credits for attibutions and further copyright information.

  Follow gcmap on Facebook Follow gcmap on Twitter Follow gcmap on Google+

hCard Microformat

Geo Microformat